Preview of NWS' New Version of Forecast
This preview is not operational and should not be used for support decisions.

Regional Weather Roundup (RWR)

Issued by National Weather Service (NWS)

                            
000
ASUS45 KBOI 261910
RWRID 

IDAHO REGIONAL WEATHER ROUNDUP
NATIONAL WEATHER SERVICE BOISE ID
100 PM MDT TUE MAR 26 2019

NOTE: "FAIR" INDICATES FEW OR NO CLOUDS BELOW 12000 FEET
WITH NO SIGNIFICANT WEATHER AND/OR OBSTRUCTIONS TO VISIBILITY

IDZ012-014-262000-
SOUTHWEST IDAHO

  
CITY           SKY/WX    TMP DP  RH WIND       PRES   REMARKS
BOISE          FAIR      53  39  59 NW7       30.02F                  
CALDWELL       CLOUDY    54  40  59 W10       30.04F                  
MOUNTAIN HOME  PTSUNNY   54  33  44 N5        30.01F                  
$$

IDZ016-017-262000-
SOUTHCENTRAL IDAHO

  
CITY           SKY/WX    TMP DP  RH WIND       PRES   REMARKS
JEROME         FAIR      51  35  54 W7        30.02F                  
TWIN FALLS     FAIR      55  35  47 W12       30.01F                  
$$

IDZ019>023-262000-
SOUTHEAST IDAHO

  
CITY           SKY/WX    TMP DP  RH WIND       PRES   REMARKS
IDAHO FALLS    FAIR      55  25  31 S12G23    30.02F                  
POCATELLO      FAIR      55  31  39 W9        30.03F                  
REXBURG        FAIR      55  24  30 S12       30.01F                  
$$

IDZ006-010-011-018-031-032-262000-
CENTRAL IDAHO MOUNTAINS

  
CITY           SKY/WX    TMP DP  RH WIND       PRES   REMARKS
MCCALL         LGT SNOW  35  32  88 NE3       30.01S VSB 1            
HAILEY         CLOUDY    48  28  46 NW6       30.03F                  
STANLEY          N/A     37  29  72 N5        30.03F WCI  33          
SALMON         CLOUDY    49  29  46 VRB3      29.96F                  
CHALLIS        FAIR      49  26  41 CALM      29.98F                  
$$

IDZ002-004-006-007-026-262000-
NORTHERN IDAHO

  
CITY           SKY/WX    TMP DP  RH WIND       PRES   REMARKS
LEWISTON       FAIR      54  39  57 VRB6      30.07S                  
LOWELL           N/A     45  41  86 CALM      30.11F                  
COEUR D'ALENE  CLOUDY    47  33  58 S16G22    30.03S                  
MULLAN PASS    LGT SNOW  29  27  92 VRB3      29.97S FOG              
$$